SL-16 R/B, 22803

Orbit data source: Space-Track

SL-16 R/B, 22803 is space debris in LEO originally from a launch on Thu, 16 Sep 1993 UTC launched from the Tyuratam Missile And Space Complex (TTMTR). Debris objects in space refer to the collection of defunct objects orbiting the Earth. Examples of debris include non-operational satellites, rocket bodies, and fragments generated from explosions, collisions, or faulty payload assembly.

Loading next visibility...
Identifier
22803, 1993-059B
Orbit
LEO
Country
Flag of CISCIS
Related business
Manufacturer
Yuzhnoe
Mission
Spacecraft
Bus & Motor
11S772, Unknown motor
Mass
9,000 kg wet, 9,000 kg dry
Launch date (UTC)
1993-09-16 (33 years ago)
Launch vehicle
Unknown
Launch site
Tyuratam Missile And Space Complex (TTMTR)
Object type
Payload
Rocket body
Debris
Shape & HBR
Cyl, 5.2 m
Radar Cross Section
37.829 m², Large (>1 m²)

Expand to show TLE details & history
Last TLE update: 2 days ago

TLE from 2 days ago
0 SL-16 R/B
1 22803U 93059B   26171.38370456 -.00000190  00000-0 -70101-4 0  9999
2 22803  70.9886 154.5628 0015335  48.5639 311.6799 14.17247821694088
Epoch: 2026-06-20T09:12Z
TLE epoch observation values (Epoch: 2026-06-20T09:12:32.073Z)
Latitude
-0.00007°
Longitude
107.83003°
Altitude
829.731 km
Speed
7.442 km/s
True Right ascension
10h 18m 15s
True Declination
0° 00' 00"
Sunlit
Object was in daylight at epoch
Visualization orbit readout
Latitude
Unknown
Longitude
Unknown
Altitude
Unknown
Speed
Unknown
Apparent Right ascension
Unknown
Apparent Declination
Unknown
Sunlit
N/A
Visualization observer readout
Local Sidereal Time
02:14:44
Azimuth
Unknown
Elevation
Unknown
Doppler factor
Unknown
Orbital elements
Apogee altitude
843.657 km
Perigee altitude
821.542 km
Semi-major axis
7,210.736 km
Eccentricity
0.00153
Inclination
70.9886°
RAAN
154.5628°
Arg. of periapsis
48.5639°
True anomaly
311.54849°
Mean anomaly
311.6799°
Eccentric anomaly
311.61421°
Mean motion
3.54465 °/min
Orbital period
101.56 mins
BSTAR
-0.000070101
Loading maneuver chart data...
Computing Atmospheric mass density...
Loading historical data...
Loading historical data...
Loading historical data...
Loading historical data...
Loading historical data...
Loading historical data...
Loading historical data...

Documentation

Showing up to 5 results
|